When you browse on this site, cookies collect data to enhance your experience and personalize the content and advertising you see.
Visit our Privacy Policy to learn more. By continuing to use the site, you agree to this use of cookies and data.
  • In Romania
  • List of Countries
  • For 7 days
  • Water Temperature
  • Weather Map
  • Weather Widgets
  • user-avatar
    Login

    Hourly Weather Achenheim

    Today, 24 August, Saturday

    Time Temperature Precipitation Wind Pressure Humidity
    00:00 +19°C° 0 mm 1 mps 751 mmHg 85%
    01:00 +19°C° 0 mm 1 mps 750 mmHg 88%
    02:00 +18°C° 0 mm 1 mps 750 mmHg 88%
    03:00 +18°C° 0 mm 1 mps 750 mmHg 89%
    04:00 +18°C° 0 mm 1 mps 750 mmHg 89%
    05:00 +18°C° 0 mm 1 mps 750 mmHg 88%
    06:00 +19°C° 0 mm 1 mps 750 mmHg 87%
    07:00 +19°C° 0 mm 1 mps 750 mmHg 86%
    08:00 +21°C° 0 mm 1 mps 750 mmHg 79%
    09:00 +23°C° 0 mm 1 mps 750 mmHg 72%
    10:00 +25°C° 0 mm 1 mps 750 mmHg 65%
    11:00 +26°C° 0 mm 1 mps 750 mmHg 62%
    12:00 +28°C° 0 mm 2 mps 750 mmHg 59%
    13:00 +29°C° 0 mm 2 mps 749 mmHg 56%
    14:00 +29°C° 0 mm 2 mps 749 mmHg 55%
    15:00 +29°C° 0 mm 2 mps 749 mmHg 55%
    16:00 +29°C° 0 mm 2 mps 749 mmHg 54%
    17:00 +28°C° 0 mm 2 mps 748 mmHg 60%
    18:00 +27°C° 0 mm 1 mps 748 mmHg 66%
    19:00 +25°C° 0 mm 1 mps 748 mmHg 72%
    20:00 +24°C° 0 mm 1 mps 748 mmHg 76%
    21:00 +23°C° 0 mm 1 mps 748 mmHg 80%
    22:00 +22°C° 0 mm 1 mps 748 mmHg 84%
    23:00 +21°C° 0 mm 1 mps 748 mmHg 85%

    Tomorrow, 25 August, Sunday

    Time Temperature Precipitation Wind Pressure Humidity
    00:00 +19°C° 0 mm 0 mps 748 mmHg 87%
    01:00 +18°C° 0 mm 0 mps 748 mmHg 88%
    02:00 +18°C° 0 mm 0 mps 748 mmHg 89%
    03:00 +18°C° 0 mm 0 mps 748 mmHg 89%
    04:00 +17°C° 0 mm 0 mps 748 mmHg 90%
    05:00 +18°C° 0 mm 0 mps 748 mmHg 89%
    06:00 +19°C° 0 mm 0 mps 748 mmHg 88%
    07:00 +19°C° 0 mm 0 mps 748 mmHg 87%
    08:00 +23°C° 0 mm 1 mps 748 mmHg 80%
    09:00 +25°C° 0 mm 1 mps 749 mmHg 73%
    10:00 +27°C° 0 mm 1 mps 749 mmHg 66%
    11:00 +28°C° 0 mm 1 mps 749 mmHg 60%
    12:00 +29°C° 0 mm 1 mps 749 mmHg 55%
    13:00 +30°C° 0 mm 1 mps 748 mmHg 49%
    14:00 +30°C° 0 mm 1 mps 748 mmHg 47%
    15:00 +31°C° 0 mm 1 mps 748 mmHg 46%
    16:00 +31°C° 0 mm 1 mps 748 mmHg 44%
    17:00 +29°C° 0 mm 1 mps 748 mmHg 50%
    18:00 +25°C° 0 mm 0 mps 748 mmHg 57%
    19:00 +23°C° 0 mm 0 mps 748 mmHg 63%
    20:00 +22°C° 0 mm 0 mps 748 mmHg 66%
    21:00 +23°C° 0 mm 1 mps 749 mmHg 68%
    22:00 +22°C° 0 mm 1 mps 749 mmHg 70%
    23:00 +22°C° 0 mm 1 mps 749 mmHg 72%

    Day after tomorrow, 26 August, Monday

    Time Temperature Precipitation Wind Pressure Humidity
    00:00 +21°C° 0 mm 1 mps 749 mmHg 73%
    01:00 +21°C° 0 mm 1 mps 748 mmHg 75%
    02:00 +18°C° 0 mm 0 mps 748 mmHg 77%
    03:00 +18°C° 0 mm 0 mps 748 mmHg 79%
    04:00 +18°C° 0 mm 0 mps 748 mmHg 80%
    05:00 +18°C° 0 mm 0 mps 748 mmHg 79%
    06:00 +19°C° 0 mm 0 mps 748 mmHg 79%
    07:00 +19°C° 0 mm 0 mps 748 mmHg 78%
    08:00 +22°C° 0 mm 0 mps 748 mmHg 71%
    09:00 +26°C° 0 mm 1 mps 748 mmHg 65%
    10:00 +28°C° 0 mm 1 mps 748 mmHg 58%
    11:00 +29°C° 0 mm 1 mps 748 mmHg 54%
    12:00 +30°C° 0 mm 1 mps 748 mmHg 50%
    13:00 +31°C° 0 mm 1 mps 748 mmHg 45%
    14:00 +31°C° 0 mm 1 mps 748 mmHg 43%
    15:00 +31°C° 0 mm 1 mps 747 mmHg 41%
    16:00 +32°C° 0 mm 1 mps 747 mmHg 38%
    17:00 +30°C° 0 mm 1 mps 747 mmHg 45%
    18:00 +28°C° 0 mm 1 mps 747 mmHg 52%
    19:00 +26°C° 0 mm 1 mps 747 mmHg 59%
    20:00 +25°C° 0 mm 1 mps 747 mmHg 61%
    21:00 +24°C° 0 mm 1 mps 747 mmHg 63%
    22:00 +23°C° 0 mm 1 mps 747 mmHg 66%
    23:00 +22°C° 0 mm 1 mps 747 mmHg 68%

    27 August, Tuesday

    Time Temperature Precipitation Wind Pressure Humidity
    00:00 +20°C° 0 mm 0 mps 747 mmHg 70%
    01:00 +19°C° 0 mm 0 mps 747 mmHg 72%
    02:00 +19°C° 0 mm 0 mps 747 mmHg 74%
    03:00 +21°C° 0 mm 1 mps 747 mmHg 76%
    04:00 +20°C° 0 mm 1 mps 747 mmHg 78%
    05:00 +21°C° 0 mm 1 mps 747 mmHg 78%
    06:00 +21°C° 0 mm 1 mps 747 mmHg 77%
    07:00 +21°C° 0 mm 1 mps 747 mmHg 77%
    08:00 +23°C° 0 mm 1 mps 747 mmHg 70%
    09:00 +26°C° 0 mm 1 mps 747 mmHg 62%
    10:00 +28°C° 0 mm 1 mps 747 mmHg 55%
    11:00 +29°C° 0 mm 1 mps 747 mmHg 51%
    12:00 +30°C° 0 mm 1 mps 747 mmHg 47%
    13:00 +31°C° 0 mm 1 mps 747 mmHg 43%
    14:00 +31°C° 0 mm 1 mps 747 mmHg 43%
    15:00 +31°C° 0 mm 1 mps 746 mmHg 42%
    16:00 +31°C° 0 mm 1 mps 746 mmHg 42%
    17:00 +29°C° 0 mm 1 mps 746 mmHg 48%
    18:00 +28°C° 0 mm 1 mps 746 mmHg 55%
    19:00 +24°C° 0 mm 0 mps 746 mmHg 61%
    20:00 +23°C° 0 mm 0 mps 746 mmHg 63%
    21:00 +24°C° 0 mm 1 mps 746 mmHg 64%
    22:00 +23°C° 0 mm 1 mps 747 mmHg 65%
    23:00 +23°C° 0 mm 1 mps 746 mmHg 67%

    28 August, Wednesday

    Time Temperature Precipitation Wind Pressure Humidity
    00:00 +22°C° 0 mm 1 mps 746 mmHg 69%
    01:00 +22°C° 0 mm 1 mps 746 mmHg 70%
    02:00 +21°C° 0 mm 1 mps 746 mmHg 71%
    03:00 +21°C° 0 mm 1 mps 746 mmHg 72%
    04:00 +21°C° 0 mm 1 mps 746 mmHg 72%
    05:00 +21°C° 0 mm 1 mps 746 mmHg 72%
    06:00 +22°C° 0 mm 1 mps 746 mmHg 71%
    07:00 +20°C° 0 mm 0 mps 746 mmHg 71%
    08:00 +25°C° 0 mm 1 mps 746 mmHg 64%
    09:00 +27°C° 0 mm 1 mps 746 mmHg 58%
    10:00 +29°C° 0 mm 1 mps 746 mmHg 51%
    11:00 +30°C° 0 mm 2 mps 746 mmHg 47%
    12:00 +31°C° 0 mm 2 mps 746 mmHg 44%
    13:00 +32°C° 0 mm 2 mps 746 mmHg 40%
    14:00 +34°C° 0 mm 2 mps 745 mmHg 40%
    15:00 +33°C° 0 mm 1 mps 745 mmHg 39%
    16:00 +33°C° 0 mm 1 mps 745 mmHg 39%
    17:00 +31°C° 0 mm 1 mps 745 mmHg 45%
    18:00 +29°C° 0 mm 1 mps 745 mmHg 52%
    19:00 +27°C° 0 mm 1 mps 745 mmHg 58%
    20:00 +26°C° 0 mm 1 mps 745 mmHg 59%
    21:00 +25°C° 0 mm 1 mps 746 mmHg 61%
    22:00 +24°C° 0 mm 1 mps 746 mmHg 62%
    23:00 +24°C° 0 mm 1 mps 746 mmHg 64%

    29 August, Thursday

    Time Temperature Precipitation Wind Pressure Humidity
    00:00 +23°C° 0 mm 1 mps 746 mmHg 66%
    01:00 +23°C° 0 mm 1 mps 746 mmHg 67%
    02:00 +22°C° 0 mm 1 mps 746 mmHg 68%
    03:00 +22°C° 0 mm 1 mps 746 mmHg 70%
    04:00 +20°C° 0 mm 0 mps 746 mmHg 71%
    05:00 +22°C° 0.3 mm 1 mps 746 mmHg 73%
    06:00 +22°C° 0.3 mm 1 mps 746 mmHg 75%
    07:00 +22°C° 0.3 mm 1 mps 746 mmHg 77%
    08:00 +22°C° 0.4 mm 1 mps 747 mmHg 78%
    09:00 +21°C° 0.4 mm 2 mps 747 mmHg 80%
    10:00 +23°C° 0.4 mm 2 mps 747 mmHg 82%
    11:00 +24°C° 0.1 mm 2 mps 747 mmHg 77%
    12:00 +25°C° 0.1 mm 2 mps 747 mmHg 73%
    13:00 +26°C° 0.1 mm 1 mps 747 mmHg 68%
    14:00 +27°C° 0 mm 1 mps 747 mmHg 64%
    15:00 +28°C° 0 mm 1 mps 747 mmHg 61%
    16:00 +29°C° 0 mm 1 mps 747 mmHg 58%
    17:00 +27°C° 0.4 mm 1 mps 747 mmHg 65%
    18:00 +26°C° 0.4 mm 1 mps 747 mmHg 72%
    19:00 +24°C° 0.4 mm 1 mps 748 mmHg 79%
    20:00 +23°C° 1.2 mm 1 mps 748 mmHg 82%
    21:00 +23°C° 1.2 mm 2 mps 748 mmHg 85%
    22:00 +21°C° 1.2 mm 2 mps 748 mmHg 88%
    23:00 +20°C° 0.2 mm 2 mps 749 mmHg 89%
    Show more